Tiempo atmosférico en la estación meteorológica de Degaña, Asturias (1305 m.)



Fecha
DESCASC
Temp. máxima en grados centígrados (hora)
DESCASC
Temp. mínima en grados centígrados (hora)
DESCASC
Temp. media en grados centígrados
DESCASC
Racha de viento máxima en m/sg (hora)
DESCASC
Velocidad máxima media en intervalos de 10 minutos(hora)
DESCASC
Precipitaciones diarias en mm
DESCASC
Precipitaciones de 00:00 a 06:00 en mm
DESCASC
Precipitaciones de 06:00 a 12:00 en mm
DESCASC
Precipitaciones de 12:00 a 18:00 en mm
DESCASC
Precipitaciones de 18:00 a 24:00 en mm
DESCASC
25-04-2019 4.5 (15:00) -0.3 (06:40) 2.1 10.83 (15:10) 2.78 (15:10) 13.4 0 9.6 3 0.8
24-04-2019 5.4 (13:40) -0.1 (07:50) 2.7 11.67 (12:50) 4.72 (12:50) 13.6 0 4 4 5.6
23-04-2019 5.7 (00:00) 0.5 (23:50) 3.1 8.33 (13:10) 3.89 (13:10) 9.2 7.4 0.8 1 0
22-04-2019 14.9 (15:40) 1.2 (00:00) 8 9.44 (14:00) 4.17 (13:10) 2 0 0 0 2
21-04-2019 12.2 (17:00) 4.6 (00:00) 8.4 10.56 (09:50) 5.83 (10:40) 0 0 0 0 0
20-04-2019 16.9 (16:00) 5.3 (00:00) 11.1 14.17 (14:00) 6.94 (14:00) 0 0 0 0 0
19-04-2019 13.3 (19:00) 4.9 (00:00) 9.1 10.56 (13:00) 5.56 (13:30) 1.4 1 0.4 0 0
18-04-2019 10.3 (15:30) 2.5 (00:00) 6.4 8.06 (20:10) 3.89 (09:40) 7.4 6.4 0 1 0
17-04-2019 13.8 (16:00) 6.1 (00:00) 10 19.17 (05:20) 7.22 (05:40) 18.4 0 0 0 18.4
16-04-2019 13 (16:20) -0.4 (00:00) 6.3 11.11 (18:00) 6.39 (10:10) 0 0 0 0 0
15-04-2019 12 (00:50) 2.7 (00:00) 7.4 11.39 (11:10) 3.89 (08:50) -- -- 9.6 4.6 1.6
14-04-2019 16.7 (17:30) 7.3 (00:00) 12 5.28 (14:50) 2.78 (15:10) -- -- -- -- --
13-04-2019 15.8 (15:10) 3.2 (00:00) 9.5 5.83 (13:10) 3.33 (02:30) -- -- -- -- --
12-04-2019 14.2 (16:30) -1.6 (-00:0) 6.3 5.56 (15:10) 2.5 (13:30) -- -- -- -- --
11-04-2019 7 (17:10) -1.5 (-00:0) 2.8 -- (--) -- (--) -- -- -- -- --
10-04-2019 4.5 (16:40) -0.2 (00:00) 2.1 -- (--) -- (--) -- -- -- -- --
09-04-2019 5.7 (14:30) 0.4 (00:00) 3 6.67 (00:40) 1.94 (00:50) -- -- -- -- --
08-04-2019 8.6 (14:10) 1.3 (00:00) 5 9.17 (23:50) 4.72 (00:10) -- -- -- -- --
07-04-2019 3.1 (13:30) -2.4 (-00:0) 0.3 -- (--) -- (--) -- -- -- -- --
06-04-2019 1.1 (16:40) -0.9 (-00:0) 0.1 -- (--) -- (--) -- -- -- -- --
05-04-2019 4.1 (14:50) -1.6 (-00:0) 1.2 -- (--) -- (--) -- -- -- -- --
04-04-2019 3.7 (13:10) -2.8 (-00:0) 0.5 7.22 (13:30) 2.22 (20:50) -- -- -- -- --
03-04-2019 2.5 (00:00) -2.6 (-00:0) 0 8.89 (15:20) 3.06 (19:50) -- 0.2 0.4 6 --
02-04-2019 13.1 (14:40) -0.7 (-00:0) 6.2 8.33 (16:10) 4.72 (16:00) 0 0 0 0 0
01-04-2019 13.1 (13:30) 1.2 (00:00) 7.2 8.06 (17:30) 3.89 (04:20) 0 0 0 0 0
31-03-2019 13 (15:20) 6.3 (00:00) 9.7 6.67 (14:30) 4.72 (01:00) 1.2 0 0 0 1.2
30-03-2019 10.9 (15:30) 3.1 (00:00) 7 8.61 (22:00) 5.83 (22:10) 0 0 0 0 0
29-03-2019 16.3 (14:30) 3.4 (00:00) 9.8 6.67 (17:10) 3.89 (08:30) 0 0 0 0 0
28-03-2019 16.3 (15:00) 4.7 (00:00) 10.5 7.5 (15:00) 3.89 (01:00) 0 0 0 0 0
27-03-2019 17.2 (13:00) 4.9 (00:00) 11.1 8.06 (10:40) 5 (00:30) 0 0 0 0 0

Gráficas

Temp. máximas Temp. mínimas Temp. medias Precipitaciones Rachas de viento máximas Velocidades máximas media en intervalos de 10 minutos

Datos horarios

Fecha y hora oficial Temperatura (ºC) Velocidad del viento (km/h) Dirección del viento Racha (km/h) Dirección de racha Precipitación (mm) Presión (hPa) Tendencia (hPa) Humedad (%)
2019-04-25 23:00:00 0.3 0 Calma -- -- 0 -- -- 100
2019-04-25 22:00:00 0.1 0 Calma -- -- 0 -- -- 99
2019-04-25 21:00:00 0.1 0 Calma -- -- 0.2 -- -- 99
2019-04-25 20:00:00 0.3 0 Calma 4 Noroeste 0 -- -- 99
2019-04-25 19:00:00 0.4 4 Noroeste 13 Oeste 0.4 -- -- 98
2019-04-25 18:00:00 0.4 8 Noroeste 15 Oeste 0.6 -- -- 97
2019-04-25 17:00:00 1.1 4 Norte 23 Norte 0.4 -- -- 94
2019-04-25 16:00:00 3.8 6 Nordeste 39 Sur 0 -- -- 90
2019-04-25 15:00:00 4.5 6 Sudeste 33 Sur 0.2 -- -- 98
2019-04-25 14:00:00 3.3 9 Nordeste 37 Sur 0.2 -- -- 89
2019-04-25 13:00:00 3.5 5 Norte 21 Norte 1.6 -- -- 87
2019-04-25 12:00:00 2.7 5 Nordeste 19 Noroeste 5.6 -- -- 87
2019-04-25 11:00:00 0.7 4 Noroeste 14 Noroeste 3.8 -- -- 93
2019-04-25 10:00:00 0.2 0 Calma -- -- 0.2 -- -- 94
2019-04-25 09:00:00 -0.2 0 Calma -- -- 0 -- -- 95
2019-04-25 08:00:00 -0.3 0 Calma -- -- 0 -- -- 95
2019-04-25 07:00:00 -0.3 0 Calma -- -- 0 -- -- 95
2019-04-25 06:00:00 -0.2 0 Calma -- -- 0 -- -- 96
2019-04-25 05:00:00 -0.1 0 Calma -- -- 0 -- -- 94
2019-04-25 04:00:00 -0.1 0 Calma -- -- 0 -- -- 95
2019-04-25 03:00:00 -0.1 0 Calma -- -- 0 -- -- 96
2019-04-25 02:00:00 -0.1 0 Calma 11 Noroeste 0 -- -- 97
2019-04-25 01:00:00 0.3 6 Noroeste 23 Oeste 0 -- -- 94
2019-04-25 00:00:00 0.6 6 Noroeste 18 Noroeste 0.4 -- -- 92
2019-04-24 23:00:00 0.8 4 Noroeste 14 Noroeste 0.4 -- -- 97
2019-04-24 22:00:00 1.2 7 Noroeste 15 Oeste 1 -- -- 96
2019-04-24 21:00:00 0.9 0 Calma 27 Oeste 1.8 -- -- 96
2019-04-24 20:00:00 2.9 7 Norte 20 Noroeste 1 -- -- 92
2019-04-24 19:00:00 3.3 5 Este 26 Este 1 -- -- 93
2019-04-24 18:00:00 3.8 7 Nordeste 33 Sur 0.6 -- -- 91
2019-04-24 17:00:00 4.3 7 Sudeste 24 Sudeste 0 -- -- 81
2019-04-24 16:00:00 4.4 6 Sudeste 17 Sudeste 1 -- -- 97
2019-04-24 15:00:00 4.2 4 Nordeste 36 Sur 0.8 -- -- 94
2019-04-24 14:00:00 4.7 8 Norte 29 Norte 0.2 -- -- 91
2019-04-24 13:00:00 4.1 13 Sur 42 Sudeste 1.4 -- -- 94
2019-04-24 12:00:00 2.5 3 Sudeste 26 Sudeste 3.2 -- -- 91
2019-04-24 11:00:00 0.7 13 Sudeste 30 Este 0.8 -- -- 93
2019-04-24 10:00:00 0.2 5 Este 25 Este 0 -- -- 94
2019-04-24 09:00:00 0 5 Nordeste 27 Nordeste 0 -- -- 94
2019-04-24 08:00:00 -0.1 9 Este 25 Este 0 -- -- 94
2019-04-24 07:00:00 0 6 Este 22 Este 0 -- -- 91
2019-04-24 06:00:00 0.3 10 Este 21 Este 0 -- -- 86
2019-04-24 05:00:00 0.4 5 Sur 30 Sur 0 -- -- 85
2019-04-24 04:00:00 0.3 6 Sudeste 28 Sur 0 -- -- 87
2019-04-24 03:00:00 0.2 5 Noroeste 18 Nordeste 0 -- -- 90
2019-04-24 02:00:00 0.3 8 Noroeste 18 Noroeste 0 -- -- 87
2019-04-24 01:00:00 0.5 3 Noroeste 9 Noroeste 0 -- -- 94
2019-04-24 00:00:00 0.6 0 Calma 9 Sudoeste 0 -- -- 91
2019-04-23 23:00:00 0.9 2 Noroeste 6 Noroeste 0 -- -- 90
2019-04-23 22:00:00 1 2 Oeste 6 Noroeste 0 -- -- 95
2019-04-23 21:00:00 1.6 0 Calma 6 Noroeste 0 -- -- 94
2019-04-23 20:00:00 1.9 0 Calma 12 Noroeste 0 -- -- 92
2019-04-23 19:00:00 3.3 2 Sudoeste 15 Sudoeste 0 -- -- 81
2019-04-23 18:00:00 2.8 3 Sudeste 13 Noroeste 0.2 -- -- 95
2019-04-23 17:00:00 1.8 4 Noroeste 18 Noroeste 0.4 -- -- 92
2019-04-23 16:00:00 2.7 8 Noroeste 23 Noroeste 0.4 -- -- 87
2019-04-23 15:00:00 3.7 5 Nordeste 22 Noroeste 0 -- -- 82
2019-04-23 14:00:00 5 9 Este 30 Sudeste 0 -- -- 76
2019-04-23 13:00:00 5.1 8 Sur 28 Sur 0 -- -- 76
2019-04-23 12:00:00 3.2 4 Este 27 Sudeste 0 -- -- 81
2019-04-23 11:00:00 2.4 5 Este 22 Sur 0 -- -- 86
2019-04-23 10:00:00 1.7 6 Sur 23 Sudeste 0 -- -- 91
2019-04-23 09:00:00 1.6 4 Noroeste 22 Sudeste 0 -- -- 95
2019-04-23 08:00:00 1.6 5 Sudeste 18 Sudeste 0.4 -- -- 95
2019-04-23 07:00:00 2 3 Sur 21 Sur 0.4 -- -- 95
2019-04-23 06:00:00 2.4 4 Sur 20 Sur 1 -- -- 91
2019-04-23 05:00:00 3.3 5 Nordeste 17 Sur 1.2 -- -- 94
2019-04-23 04:00:00 4 4 Noroeste 11 Norte 1.2 -- -- 96
2019-04-23 03:00:00 4.3 3 Noroeste 21 Noroeste 0.6 -- -- 94
2019-04-23 02:00:00 4.5 6 Noroeste 14 Noroeste 1.2 -- -- 95
2019-04-23 01:00:00 4.6 4 Norte 13 Este 2.2 -- -- 93
2019-04-23 00:00:00 5.7 5 Nordeste 16 Sur 1 -- -- 88
2019-04-22 23:00:00 7.2 3 Noroeste 17 Oeste 0.6 -- -- 87
2019-04-22 22:00:00 7.6 7 Oeste 25 Noroeste 0.4 -- -- 80
2019-04-22 21:00:00 9.3 3 Sur 12 Este 0 -- -- 73
2019-04-22 20:00:00 11.4 3 Este 15 Noroeste 0 -- -- 62
2019-04-22 19:00:00 12.5 4 Nordeste 17 Sur 0 -- -- 52
2019-04-22 18:00:00 13.1 5 Norte 13 Norte 0 -- -- 53
2019-04-22 17:00:00 14.6 5 Sudeste 22 Sur 0 -- -- 50
2019-04-22 16:00:00 14.5 6 Noroeste 25 Sudeste 0 -- -- 46
2019-04-22 15:00:00 13.4 6 Sudeste 21 Sur 0 -- -- 49
2019-04-22 14:00:00 12.4 14 Sudeste 34 Sudeste 0 -- -- 56
2019-04-22 13:00:00 12.2 13 Sudeste 26 Sudeste 0 -- -- 58
2019-04-22 12:00:00 11 11 Sudeste 23 Sudeste 0 -- -- 61
2019-04-22 11:00:00 9.2 6 Sudeste 14 Sudeste 0 -- -- 67
2019-04-22 10:00:00 7.7 4 Sur 12 Sudeste 0 -- -- 72
2019-04-22 09:00:00 4.2 0 Calma 4 Oeste 0 -- -- 89
2019-04-22 08:00:00 1.5 3 Noroeste 5 Noroeste 0 -- -- 92
2019-04-22 07:00:00 1.4 3 Noroeste 5 Noroeste 0 -- -- 92
2019-04-22 06:00:00 1.6 2 Norte 4 Noroeste 0 -- -- 90
2019-04-22 05:00:00 1.9 2 Noroeste 5 Noroeste 0 -- -- 86
2019-04-22 04:00:00 2.1 3 Noroeste 7 Noroeste 0 -- -- 85
2019-04-22 03:00:00 3.1 0 Calma 11 Nordeste 0 -- -- 81
2019-04-22 02:00:00 4.3 8 Nordeste 12 Nordeste 0 -- -- 81
2019-04-22 01:00:00 3.2 0 Calma 5 Noroeste 0 -- -- 84
2019-04-22 00:00:00 4.6 4 Nordeste 10 Nordeste 0 -- -- 78
2019-04-21 23:00:00 7.2 8 Nordeste 15 Norte 0 -- -- 69
2019-04-21 22:00:00 8 8 Nordeste 20 Nordeste 0 -- -- 69
2019-04-21 21:00:00 9.6 8 Norte 24 Este 0 -- -- 64
2019-04-21 20:00:00 11.1 8 Nordeste 34 Este 0 -- -- 56
2019-04-21 19:00:00 12.1 9 Sudeste 29 Norte 0 -- -- 53
2019-04-21 18:00:00 12 12 Este 36 Este 0 -- -- 55
2019-04-21 17:00:00 12.2 15 Nordeste 35 Nordeste 0 -- -- 54
2019-04-21 16:00:00 11.5 11 Este 31 Este 0 -- -- 55
2019-04-21 15:00:00 12.1 10 Sudeste 34 Nordeste 0 -- -- 54
2019-04-21 14:00:00 12 11 Sudeste 30 Nordeste 0 -- -- 54
2019-04-21 13:00:00 11.5 14 Nordeste 37 Norte 0 -- -- 54
2019-04-21 12:00:00 10.1 14 Nordeste 33 Nordeste 0 -- -- 59
2019-04-21 11:00:00 11.4 15 Nordeste 38 Nordeste 0 -- -- 55
2019-04-21 10:00:00 10.7 18 Este 38 Este 0 -- -- 55
2019-04-21 09:00:00 9.4 10 Este 33 Este 0 -- -- 59
2019-04-21 08:00:00 8.4 9 Este 22 Este 0 -- -- 62
2019-04-21 07:00:00 8.2 7 Este 29 Nordeste 0 -- -- 59
2019-04-21 06:00:00 8.4 12 Este 30 Este 0 -- -- 55
2019-04-21 05:00:00 5.4 3 Nordeste 11 Norte 0 -- -- 75
2019-04-21 04:00:00 6.7 6 Nordeste 12 Sudeste 0 -- -- 70
2019-04-21 03:00:00 8 6 Nordeste 15 Este 0 -- -- 65
2019-04-21 02:00:00 8.7 8 Nordeste 19 Este 0 -- -- 61
2019-04-21 01:00:00 8.8 4 Nordeste 18 Este 0 -- -- 58
2019-04-21 00:00:00 9.7 13 Este 31 Nordeste 0 -- -- 53
2019-04-20 23:00:00 9.7 9 Este 25 Este 0 -- -- 56
2019-04-20 22:00:00 10.5 17 Este 34 Este 0 -- -- 54
2019-04-20 21:00:00 11.4 15 Nordeste 27 Este 0 -- -- 52
2019-04-20 20:00:00 13 11 Nordeste 25 Sudeste 0 -- -- 50
2019-04-20 19:00:00 14.5 13 Este 32 Este 0 -- -- 42
2019-04-20 18:00:00 15.4 12 Este 32 Nordeste 0 -- -- 43
2019-04-20 17:00:00 15.9 16 Nordeste 36 Nordeste 0 -- -- 42
2019-04-20 16:00:00 16.9 15 Este 39 Este 0 -- -- 37
2019-04-20 15:00:00 16.4 21 Este 46 Este 0 -- -- 35
2019-04-20 14:00:00 15.8 25 Nordeste 51 Nordeste 0 -- -- 32
2019-04-20 13:00:00 14.8 19 Este 41 Este 0 -- -- 37
2019-04-20 12:00:00 13.4 7 Sudeste 19 Nordeste 0 -- -- 64
2019-04-20 11:00:00 10.4 5 Sur 12 Sur 0 -- -- 79
2019-04-20 10:00:00 9.4 4 Sur 10 Sudoeste 0 -- -- 73
2019-04-20 09:00:00 7 0 Calma 5 Noroeste 0 -- -- 76
2019-04-20 08:00:00 5.3 0 Calma 11 Oeste 0 -- -- 72
2019-04-20 07:00:00 6.2 3 Norte 10 Oeste 0 -- -- 66
2019-04-20 06:00:00 6 2 Oeste 13 Nordeste 0 -- -- 68
2019-04-20 05:00:00 5.8 4 Oeste 6 Noroeste 0 -- -- 68
2019-04-20 04:00:00 6 0 Calma 7 Nordeste 0 -- -- 66
2019-04-20 03:00:00 6.9 3 Norte 19 Nordeste 0 -- -- 68
2019-04-20 02:00:00 10.4 13 Nordeste 18 Nordeste 0 -- -- 52
2019-04-20 01:00:00 9.4 10 Este 15 Nordeste 0 -- -- 70
2019-04-20 00:00:00 5.8 0 Calma 4 Oeste 0 -- -- 87
2019-04-19 23:00:00 7.6 3 Noroeste 10 Nordeste 0 -- -- 83
2019-04-19 22:00:00 10.2 9 Nordeste 17 Este 0 -- -- 72
2019-04-19 21:00:00 11.1 5 Este 22 Este 0 -- -- 77
2019-04-19 20:00:00 12.3 7 Este 25 Norte 0 -- -- 72
2019-04-19 19:00:00 13.3 8 Sudeste 23 Nordeste 0 -- -- 65
2019-04-19 18:00:00 12.6 16 Este 36 Este 0 -- -- 64
2019-04-19 17:00:00 12.4 12 Este 30 Este 0 -- -- 66
2019-04-19 16:00:00 12.9 16 Este 35 Sudeste 0 -- -- 62
2019-04-19 15:00:00 11.3 15 Este 32 Este 0 -- -- 68
2019-04-19 14:00:00 9.8 19 Este 33 Este 0 -- -- 71
2019-04-19 13:00:00 8.9 19 Este 38 Este 0 -- -- 75
2019-04-19 12:00:00 8.3 17 Este 32 Este 0 -- -- 80
2019-04-19 11:00:00 6.9 9 Este 18 Este 0 -- -- 87
2019-04-19 10:00:00 6.1 10 Este 21 Nordeste 0 -- -- 89
2019-04-19 09:00:00 5.5 9 Este 16 Este 0 -- -- 95
2019-04-19 08:00:00 5.4 9 Este 18 Este 0.2 -- -- 97
2019-04-19 07:00:00 5 3 Sudeste 6 Sudeste 0.2 -- -- 99
2019-04-19 06:00:00 4.9 0 Calma 4 Sudeste 0 -- -- 99
2019-04-19 05:00:00 4.9 2 Sudeste 6 Sur 0 -- -- 99
2019-04-19 04:00:00 5 0 Calma 9 Norte 0.6 -- -- 98
2019-04-19 03:00:00 5.6 5 Nordeste 20 Nordeste 0.2 -- -- 90
2019-04-19 02:00:00 5.4 6 Nordeste 15 Este 0.2 -- -- 94
2019-04-19 01:00:00 5.3 3 Oeste 17 Nordeste 0 -- -- 95
2019-04-19 00:00:00 5.6 6 Nordeste 20 Este 0 -- -- 89
2019-04-18 23:00:00 5.7 6 Nordeste 18 Este 0 -- -- 88
2019-04-18 22:00:00 5.7 6 Nordeste 17 Este 0 -- -- 90
2019-04-18 21:00:00 6 5 Este 29 Nordeste 0 -- -- 86
2019-04-18 20:00:00 6.5 8 Nordeste 22 Este 0 -- -- 83
2019-04-18 19:00:00 6.9 11 Noroeste 22 Noroeste 0 -- -- 82
2019-04-18 18:00:00 7.7 4 Sur 17 Noroeste 0 -- -- 86
2019-04-18 17:00:00 7.9 8 Norte 22 Nordeste 1 -- -- 82
2019-04-18 16:00:00 9.6 4 Nordeste 18 Sur 0 -- -- 77
2019-04-18 15:00:00 9.7 5 Este 15 Sudeste 0 -- -- 76
2019-04-18 14:00:00 7.8 10 Este 20 Este 0 -- -- 80
2019-04-18 13:00:00 7.3 9 Este 16 Este 0 -- -- 82
2019-04-18 12:00:00 6.7 7 Este 19 Este 0 -- -- 86
2019-04-18 11:00:00 6.4 10 Este 17 Este 0 -- -- 89
2019-04-18 10:00:00 5 12 Nordeste 21 Nordeste 0 -- -- 92
2019-04-18 09:00:00 4.1 6 Nordeste 14 Nordeste 0 -- -- 96
2019-04-18 08:00:00 2.9 3 Este 10 Este 0 -- -- 98
2019-04-18 07:00:00 3.5 0 Calma 5 Norte 0 -- -- 98
2019-04-18 06:00:00 3.5 3 Norte 8 Este 0 -- -- 98
2019-04-18 05:00:00 3.9 2 Este 5 Noroeste 1.8 -- -- 97
2019-04-18 04:00:00 4.6 0 Calma 6 Noroeste 1.8 -- -- 98
2019-04-18 03:00:00 5.5 4 Noroeste 13 Sudeste 2.6 -- -- 98
2019-04-18 02:00:00 6.1 2 Este 22 Oeste 0.2 -- -- 96
2019-04-18 01:00:00 6.2 3 Oeste 14 Noroeste 0 -- -- 94
2019-04-18 00:00:00 6.1 9 Este 34 Este 4.6 -- -- 93
2019-04-17 23:00:00 6.3 6 Noroeste 28 Oeste 6.8 -- -- 92
2019-04-17 22:00:00 7.2 7 Noroeste 35 Oeste 4.6 -- -- 91
2019-04-17 21:00:00 8.3 5 Norte 29 Nordeste 2.4 -- -- 86
2019-04-17 20:00:00 12.5 18 Este 44 Este 0 -- -- 55
2019-04-17 19:00:00 12.9 20 Este 41 Sudeste 0 -- -- 47
2019-04-17 18:00:00 13.1 14 Sudeste 43 Este 0 -- -- 49
2019-04-17 17:00:00 13.4 22 Este 57 Este 0 -- -- 47
2019-04-17 16:00:00 13.8 8 Sudeste 49 Sudeste 0 -- -- 48
2019-04-17 15:00:00 13.3 13 Sudeste 55 Sudeste 0 -- -- 52
2019-04-17 14:00:00 12.3 15 Sudeste 57 Oeste 0 -- -- 54
2019-04-17 13:00:00 12.4 20 Sudeste 57 Sudeste 0 -- -- 55
2019-04-17 12:00:00 12.2 10 Sudeste 53 Este 0 -- -- 54
2019-04-17 11:00:00 11.9 17 Sudeste 44 Nordeste 0 -- -- 55
2019-04-17 10:00:00 10.6 15 Este 55 Oeste 0 -- -- 59
2019-04-17 09:00:00 9.7 10 Nordeste 52 Este 0 -- -- 57
2019-04-17 08:00:00 9.8 12 Norte 40 Norte 0 -- -- 56
2019-04-17 07:00:00 10.5 14 Este 47 Nordeste 0 -- -- 52
2019-04-17 06:00:00 11.1 22 Este 69 Nordeste 0 -- -- 52
2019-04-17 05:00:00 11.5 19 Este 50 Sudeste 0 -- -- 50
2019-04-17 04:00:00 10.7 18 Este 51 Este 0 -- -- 53
2019-04-17 03:00:00 10 19 Este 49 Este 0 -- -- 52
2019-04-17 02:00:00 9.8 13 Este 34 Este 0 -- -- 51
2019-04-17 01:00:00 10.2 13 Este 30 Este 0 -- -- 49
2019-04-17 00:00:00 9.7 13 Este 32 Este 0 -- -- 52
2019-04-16 23:00:00 10.4 6 Sudeste 31 Este 0 -- -- 47
2019-04-16 22:00:00 10.4 10 Este 27 Este 0 -- -- 50
2019-04-16 21:00:00 10.9 9 Este 35 Este 0 -- -- 46
2019-04-16 20:00:00 11.7 13 Este 36 Este 0 -- -- 45
2019-04-16 19:00:00 12.5 8 Este 31 Sudeste 0 -- -- 46
2019-04-16 18:00:00 12.8 16 Sudeste 40 Sudeste 0 -- -- 45
2019-04-16 17:00:00 12.3 7 Nordeste 21 Sudoeste 0 -- -- 46
2019-04-16 16:00:00 12.7 5 Sudoeste 25 Oeste 0 -- -- 47
2019-04-16 15:00:00 12.5 7 Sudeste 29 Sur 0 -- -- 48
2019-04-16 14:00:00 12.2 11 Sur 23 Sudeste 0 -- -- 48
2019-04-16 13:00:00 10 9 Oeste 23 Oeste 0 -- -- 48
2019-04-16 12:00:00 8.6 5 Este 26 Este 0 -- -- 64
2019-04-16 11:00:00 5.7 17 Este 31 Nordeste 0 -- -- 75
2019-04-16 10:00:00 3.8 21 Este 31 Este 0 -- -- 84
2019-04-16 09:00:00 3.2 17 Nordeste 24 Este 0 -- -- 81
2019-04-16 08:00:00 1.9 10 Nordeste 16 Este 0 -- -- 89
2019-04-16 07:00:00 0.5 4 Nordeste 12 Nordeste 0 -- -- 97
2019-04-16 06:00:00 -0.4 3 Noroeste 9 Norte 0 -- -- 99
2019-04-16 05:00:00 0.2 5 Nordeste 10 Nordeste 0 -- -- 99
2019-04-16 04:00:00 0 2 Noroeste 6 Noroeste 0 -- -- 99
2019-04-16 03:00:00 0.4 2 Noroeste 8 Noroeste 0 -- -- 99
2019-04-16 02:00:00 0.5 4 Noroeste 5 Noroeste 0 -- -- 98
2019-04-16 01:00:00 1.5 4 Noroeste 6 Noroeste 0 -- -- 97
2019-04-16 00:00:00 3.1 0 Calma 6 Noroeste 0 -- -- 95
2019-04-15 23:00:00 2.9 3 Noroeste 8 Noroeste 0 -- -- 94
2019-04-15 22:00:00 4.3 2 Noroeste 19 Noroeste 0 -- -- 89
2019-04-15 21:00:00 4.8 4 Noroeste 17 Noroeste 0 -- -- 87
2019-04-15 20:00:00 5.4 4 Noroeste 23 Noroeste 1.2 -- -- 93
2019-04-15 19:00:00 7 3 Noroeste 15 Noroeste 0.4 -- -- 91
2019-04-15 18:00:00 7.8 4 Nordeste 10 Sudeste 0 -- -- 83
2019-04-15 17:00:00 7.7 4 Este 17 Noroeste 0.2 -- -- 88
2019-04-15 16:00:00 6.4 4 Noroeste 16 Oeste 3.2 -- -- 94
2019-04-15 15:00:00 8.4 5 Norte 22 Noroeste 1.2 -- -- 92
2019-04-15 14:00:00 10.5 7 Norte 30 Este 0 -- -- 71
2019-04-15 13:00:00 9.6 8 Nordeste 21 Sudoeste 0 -- -- 76
2019-04-15 12:00:00 9.5 8 Nordeste 41 Noroeste 0.6 -- -- 92
2019-04-15 11:00:00 9 7 Noroeste 36 Oeste 7.4 -- -- 93
2019-04-15 10:00:00 10.6 14 Noroeste 36 Oeste 1.4 -- -- 88
2019-04-15 09:00:00 11.3 10 Norte 38 Noroeste 0.2 -- -- 79
2019-04-15 08:00:00 11.3 9 Nordeste 35 Este 0 -- -- 74
2019-04-15 07:00:00 11.5 7 Este 24 Noroeste 0 -- -- 74
2019-04-15 06:00:00 11.5 9 Sudeste 22 Sudoeste 0 -- -- 76
2019-04-15 05:00:00 11.2 9 Este 19 Este 0 -- -- 77
2019-04-15 04:00:00 11.4 8 Este 27 Este 0 -- -- 75
2019-04-15 03:00:00 11.4 5 Nordeste 19 Este 0 -- -- 79
2019-04-15 02:00:00 11.6 5 Sur 17 Sudeste 0 -- -- 78
2019-04-15 01:00:00 11.8 3 Nordeste 17 Sudoeste 0 -- -- 76
2019-04-15 00:00:00 11.7 4 Sudoeste 15 Sudeste 0 -- -- 75
2019-04-14 23:00:00 12.4 2 Norte 13 Noroeste 0 -- -- 72
2019-04-14 22:00:00 12.7 2 Sudoeste 10 Este 0 -- -- 72
2019-04-14 21:00:00 13.7 2 Sur 8 Noroeste 0 -- -- 68
2019-04-14 20:00:00 14.4 3 Sudeste 12 Sudeste 0 -- -- 67
2019-04-14 19:00:00 15.1 2 Noroeste 14 Sudoeste 0 -- -- 63
2019-04-14 18:00:00 15.6 5 Noroeste 14 Noroeste 0 -- -- 59
2019-04-14 17:00:00 16 6 Sur 18 Sur 0 -- -- 59
2019-04-14 16:00:00 15.2 5 Sudoeste 19 Sudeste 0 -- -- 65
2019-04-14 15:00:00 15 8 Sudeste 19 Sur 0 -- -- 67
2019-04-14 14:00:00 13.2 6 Sudeste 13 Sudeste 0 -- -- 71
2019-04-14 13:00:00 13.1 5 Sudeste 14 Sudeste 0 -- -- 72
2019-04-14 12:00:00 12.8 3 Sur 11 Sur 0 -- -- 73
2019-04-14 11:00:00 11.3 4 Sur 8 Sur 0 -- -- 84
2019-04-14 10:00:00 9.8 0 Calma 5 Sur 0 -- -- 91
2019-04-14 09:00:00 8.5 0 Calma 2 Nordeste 0 -- -- 93
2019-04-14 08:00:00 8 0 Calma 4 Noroeste 0 -- -- 92
2019-04-14 07:00:00 7.8 0 Calma 5 Sudeste 0 -- -- 91
2019-04-14 06:00:00 8 0 Calma 6 Oeste 0 -- -- 90
2019-04-14 05:00:00 7.6 0 Calma 3 Sur 0 -- -- 92
2019-04-14 04:00:00 7.5 0 Calma 5 Oeste 0 -- -- 90
2019-04-14 03:00:00 8.5 0 Calma 5 Oeste 0 -- -- 90
2019-04-14 02:00:00 8.5 0 Calma 3 Sudeste 0 -- -- 90
2019-04-14 01:00:00 8.6 0 Calma 4 Oeste 0 -- -- 91
2019-04-14 00:00:00 9.5 2 Noroeste 6 Noroeste 0 -- -- 81
2019-04-13 23:00:00 10 2 Norte 4 Oeste 0 -- -- 77
2019-04-13 22:00:00 10.1 3 Noroeste 6 Noroeste 0 -- -- 73
2019-04-13 21:00:00 11.2 3 Noroeste 12 Noroeste 0 -- -- 64
2019-04-13 20:00:00 12.7 2 Nordeste 7 Sudeste 0 -- -- 57
2019-04-13 19:00:00 13.9 3 Nordeste 12 Noroeste 0 -- -- 49
2019-04-13 18:00:00 14.9 3 Este 15 Sur 0 -- -- 43
2019-04-13 17:00:00 15.2 4 Oeste 19 Sur 0 -- -- 40
2019-04-13 16:00:00 15 5 Oeste 17 Sur 0 -- -- 39
2019-04-13 15:00:00 15.3 7 Sudeste 21 Sur 0 -- -- 36
2019-04-13 14:00:00 14.3 8 Noroeste 21 Sur 0 -- -- 34
2019-04-13 13:00:00 13.7 6 Sur 17 Sur 0 -- -- 38
2019-04-13 12:00:00 12.6 5 Este 15 Sur 0 -- -- 46
2019-04-13 11:00:00 10.7 7 Sudeste 11 Sudeste 0 -- -- 55
2019-04-13 10:00:00 9.6 2 Sur 11 Este 0 -- -- 58
2019-04-13 09:00:00 6.6 0 Calma 15 Nordeste 0 -- -- 69
2019-04-13 08:00:00 3.3 3 Norte 8 Norte 0 -- -- 81
2019-04-13 07:00:00 3.8 0 Calma 4 Noroeste 0 -- -- 82
2019-04-13 06:00:00 3.7 2 Oeste 5 Noroeste 0 -- -- 82
2019-04-13 05:00:00 4 2 Norte 5 Noroeste 0 -- -- 83
2019-04-13 04:00:00 4 3 Noroeste 7 Noroeste 0 -- -- 84
2019-04-13 03:00:00 6 4 Norte 17 Este 0 -- -- 75
2019-04-13 02:00:00 4.2 0 Calma 6 Noroeste 0 -- -- 89
2019-04-13 01:00:00 3.7 3 Noroeste 5 Noroeste 0 -- -- 91
2019-04-13 00:00:00 3.3 2 Noroeste 5 Noroeste 0 -- -- 92
2019-04-12 23:00:00 4.4 2 Noroeste 5 Noroeste 0 -- -- 88
2019-04-12 22:00:00 7 2 Noroeste 12 Norte 0 -- -- 77
2019-04-12 21:00:00 9.6 8 Noroeste 15 Noroeste 0 -- -- 66
2019-04-12 20:00:00 11.9 4 Noroeste 12 Sur 0 -- -- 48
2019-04-12 19:00:00 13.4 6 Sudeste 16 Sur 0 -- -- 43
2019-04-12 18:00:00 13.7 6 Sudeste 19 Sur 0 -- -- 42
2019-04-12 17:00:00 14 7 Sur 19 Sur 0 -- -- 41
2019-04-12 16:00:00 13.8 8 Sur 20 Sudoeste 0 -- -- 44
2019-04-12 15:00:00 13.1 6 Sudeste 19 Sudoeste 0 -- -- 48
2019-04-12 14:00:00 11.7 7 Sur 17 Sur 0 -- -- 51
2019-04-12 13:00:00 10.7 8 Sudeste 17 Sudeste 0 -- -- 50
2019-04-12 12:00:00 9.9 9 Sudeste 19 Sur 0 -- -- 54
2019-04-12 11:00:00 8.3 8 Sur 15 Sudeste 0 -- -- 63
2019-04-12 10:00:00 6 2 Sudeste 6 Sudeste 0 -- -- 67
2019-04-12 09:00:00 1.1 0 Calma 6 Noroeste 0 -- -- 89
2019-04-12 08:00:00 -1.2 2 Noroeste 6 Noroeste 0 -- -- 91
2019-04-12 07:00:00 -1.5 2 Noroeste 6 Noroeste 0 -- -- 89
2019-04-12 06:00:00 -1.4 2 Noroeste 6 Noroeste 0 -- -- 90
2019-04-12 05:00:00 -1.4 5 Noroeste 6 Noroeste 0 -- -- 93
2019-04-12 04:00:00 -1.2 4 Noroeste 6 Noroeste 0 -- -- 94
2019-04-12 03:00:00 -0.8 4 Noroeste 15 Este 0 -- -- 94
2019-04-12 02:00:00 -0.7 3 Noroeste 11 Este 0 -- -- 96
2019-04-12 01:00:00 -0.6 3 Noroeste 6 Noroeste 0 -- -- 97
2019-04-12 00:00:00 -0.3 3 Noroeste 4 Noroeste 0 -- -- 95
2019-04-11 23:00:00 1.3 0 Calma 4 Sudoeste 0 -- -- 93
2019-04-11 22:00:00 2.4 0 Calma 13 Sudoeste 0 -- -- 87
2019-04-11 21:00:00 4 2 Oeste 20 Norte 0 -- -- 81
2019-04-11 20:00:00 4.8 12 Norte 22 Norte 0 -- -- 78
2019-04-11 19:00:00 5.1 12 Norte 24 Norte 0 -- -- 76
2019-04-11 18:00:00 6.2 9 Norte 27 Norte 0 -- -- 69
2019-04-11 17:00:00 6.6 14 Norte 26 Noroeste 0 -- -- 70
2019-04-11 16:00:00 5.7 12 Norte 19 Norte 0 -- -- 71
2019-04-11 15:00:00 5.9 11 Norte 23 Nordeste 0 -- -- 65
2019-04-11 14:00:00 5.2 12 Norte 21 Nordeste 0 -- -- 73
2019-04-11 13:00:00 5 9 Norte 17 Noroeste 0 -- -- 73
2019-04-11 12:00:00 4.8 7 Oeste 14 Oeste 0 -- -- 68
2019-04-11 11:00:00 3.8 5 Norte 15 Norte 0 -- -- 76
2019-04-11 10:00:00 2.8 0 Calma 5 Sudeste -- -- -- 90
2019-04-11 09:00:00 -0.3 0 Calma -- -- 0 -- -- 99
2019-04-11 08:00:00 -1.3 -- -- -- -- 0 -- -- 98
2019-04-11 07:00:00 -0.8 -- -- -- -- 0 -- -- 98
2019-04-11 06:00:00 -0.5 -- -- -- -- 0 -- -- 100
2019-04-11 05:00:00 0.1 2 Noroeste 4 Noroeste 0 -- -- 99
2019-04-11 04:00:00 0.3 0 Calma 4 Oeste 0 -- -- 99
2019-04-11 03:00:00 0.6 2 Noroeste 11 Noroeste 0 -- -- 96
2019-04-11 02:00:00 1 0 Calma 6 Noroeste 0.2 -- -- 98
2019-04-11 01:00:00 1.1 0 Calma 5 Oeste 0.6 -- -- 97
2019-04-11 00:00:00 1.8 0 Calma 14 Oeste 0 -- -- 94
2019-04-10 23:00:00 2 2 Sudoeste 9 Sudeste 0 -- -- 94
2019-04-10 22:00:00 2.2 3 Sudeste 10 Sudoeste 0.2 -- -- 93
2019-04-10 21:00:00 2.7 3 Sudeste 20 Nordeste 0.2 -- -- 88
2019-04-10 20:00:00 3.1 4 Sudeste 39 Nordeste 0.4 -- -- 91
2019-04-10 19:00:00 3.4 8 Noroeste 21 Nordeste 0 -- -- 86
2019-04-10 18:00:00 4.2 4 Sudoeste 37 Sudeste 0.4 -- -- 91
2019-04-10 17:00:00 4.1 4 Oeste 19 Nordeste 0.8 -- -- 86
2019-04-10 16:00:00 3.9 8 Este 26 Este -- -- -- 90
2019-04-10 15:00:00 3.5 3 Sur 14 Sur -- -- -- 93
2019-04-10 14:00:00 3.5 5 Sur 15 Noroeste 1.8 -- -- 93
2019-04-10 13:00:00 3.4 6 Sudoeste 23 Oeste 4 -- -- 94
2019-04-10 12:00:00 3 8 Oeste 29 Oeste 4.8 -- -- 93
2019-04-10 11:00:00 2.4 6 Noroeste 21 Oeste 3.8 -- -- 96
2019-04-10 10:00:00 1.2 5 Oeste 17 Noroeste 0.6 -- -- 99
2019-04-10 09:00:00 0.6 3 Oeste 18 Oeste 0 -- -- 100
2019-04-10 08:00:00 -0.1 0 Calma -- -- 0 -- -- 100
2019-04-10 07:00:00 -0.1 0 Calma -- -- 0.2 -- -- 99
2019-04-10 06:00:00 -0.1 0 Calma 4 Noroeste 0 -- -- 99
2019-04-10 05:00:00 0.4 0 Calma 20 Noroeste 0.2 -- -- 98
2019-04-10 04:00:00 0.7 4 Noroeste 19 Oeste 0 -- -- 97
2019-04-10 03:00:00 0.7 4 Noroeste 21 Oeste 0.4 -- -- 99
2019-04-10 02:00:00 0.9 2 Noroeste 18 Noroeste 0.4 -- -- 98
2019-04-10 01:00:00 0.6 2 Noroeste 16 Oeste 0.2 -- -- 99
2019-04-10 00:00:00 0.9 2 Noroeste 19 Sudoeste 0.6 -- -- 99
2019-04-09 23:00:00 0.7 2 Noroeste 5 Norte 0.6 -- -- 98
2019-04-09 22:00:00 1.2 3 Norte 13 Oeste 0.8 -- -- 96
2019-04-09 21:00:00 0.8 4 Noroeste 13 Noroeste 0.8 -- -- 96
2019-04-09 20:00:00 2 6 Noroeste 15 Noroeste 1.2 -- -- 94
2019-04-09 19:00:00 3 4 Noroeste 15 Noroeste 1 -- -- 93
2019-04-09 18:00:00 4.7 3 Nordeste 14 Noroeste 0 -- -- 78
2019-04-09 17:00:00 4.9 4 Norte 13 Noroeste 0 -- -- 85
2019-04-09 16:00:00 3.9 3 Oeste 20 Sur 0.2 -- -- 93
2019-04-09 15:00:00 5.1 4 Norte 19 Noroeste 0 -- -- 79
2019-04-09 14:00:00 4.9 6 Sur 18 Sur 0 -- -- 87
2019-04-09 13:00:00 3.9 3 Nordeste 15 Sudoeste 0 -- -- 89
2019-04-09 12:00:00 2.2 3 Sur 10 Sudeste 1 -- -- 99
2019-04-09 11:00:00 0.9 0 Calma 6 Sudeste 0.6 -- -- 97
2019-04-09 10:00:00 0.6 0 Calma 3 Noroeste 0 -- -- 96
2019-04-09 09:00:00 0.4 0 Calma 4 Noroeste 0 -- -- 97
2019-04-09 08:00:00 0.8 0 Calma 13 Noroeste 0 -- -- 94
2019-04-09 07:00:00 1.1 3 Noroeste 8 Noroeste 0.2 -- -- 93
2019-04-09 06:00:00 1.2 0 Calma 13 Sur 0 -- -- 94
2019-04-09 05:00:00 1.5 4 Noroeste 21 Sudeste 0.2 -- -- 93
2019-04-09 04:00:00 1.9 4 Noroeste 10 Oeste 0 -- -- 88
2019-04-09 03:00:00 1.7 2 Sudeste 13 Sudeste 0 -- -- 94
2019-04-09 02:00:00 1.9 4 Noroeste 21 Sur 0.2 -- -- 91
2019-04-09 01:00:00 2.3 5 Noroeste 24 Este 0 -- -- 87
2019-04-09 00:00:00 2.8 7 Sur 33 Sur 0 -- -- 82
2019-04-08 23:00:00 3.6 5 Nordeste 14 Este 0 -- -- 74
2019-04-08 22:00:00 3.9 0 Calma 9 Oeste 0 -- -- 81
2019-04-08 21:00:00 4 3 Nordeste 9 Oeste 0 -- -- 80
2019-04-08 20:00:00 5.1 0 Calma 15 Noroeste 0 -- -- 75
2019-04-08 19:00:00 5.3 3 Sur 14 Norte 0 -- -- 72
2019-04-08 18:00:00 5.4 4 Nordeste 17 Sur 0.4 -- -- 79
2019-04-08 17:00:00 7.2 5 Sudeste 27 Este 0 -- -- 71
2019-04-08 16:00:00 7.3 4 Sudeste 23 Sur 0 -- -- 70
2019-04-08 15:00:00 7.9 8 Sur 25 Sur 0 -- -- 66
2019-04-08 14:00:00 8 10 Sudeste 24 Sudeste 0 -- -- 66
2019-04-08 13:00:00 6.5 5 Sudeste 15 Sudeste 0 -- -- 73
2019-04-08 12:00:00 4.9 3 Este 13 Sudeste 0 -- -- 87
2019-04-08 11:00:00 2.8 3 Noroeste 8 Oeste 0 -- -- 86
2019-04-08 10:00:00 3 2 Noroeste 8 Sudoeste 0 -- -- 96
2019-04-08 09:00:00 1.5 0 Calma 10 Noroeste 0.2 -- -- 99
2019-04-08 08:00:00 1.7 2 Noroeste 9 Oeste 0.4 -- -- 99
2019-04-08 07:00:00 1.9 3 Nordeste 11 Noroeste 0.2 -- -- 99
2019-04-08 06:00:00 1.8 0 Calma 4 Oeste 0.6 -- -- 99
2019-04-08 05:00:00 1.6 3 Noroeste 11 Oeste 0.2 -- -- 99
2019-04-08 04:00:00 2 5 Oeste 15 Noroeste 0 -- -- 99
2019-04-08 03:00:00 1.9 0 Calma 6 Noroeste 0.2 -- -- 98
2019-04-08 02:00:00 2 2 Sudoeste 12 Nordeste -- -- -- 97
2019-04-08 01:00:00 2.2 10 Nordeste 25 Nordeste -- -- -- 93
2019-04-08 00:00:00 1.7 14 Nordeste 21 Nordeste -- -- -- 94
2019-04-07 23:00:00 1.3 2 Norte 8 Nordeste -- -- -- 98
2019-04-07 22:00:00 1.5 2 Este 13 Sudeste -- -- -- 97
2019-04-07 21:00:00 1.1 2 Norte 13 Nordeste -- -- -- 97
2019-04-07 20:00:00 1.3 8 Nordeste 13 Nordeste -- -- -- 96
2019-04-07 19:00:00 1 5 Este 17 Este -- -- -- 96
2019-04-07 18:00:00 1.8 2 Noroeste 10 Nordeste -- -- -- 94
2019-04-07 17:00:00 2.4 3 Sudeste 22 Sudeste -- -- -- 92
2019-04-07 16:00:00 2.7 6 Norte 19 Norte -- -- -- 82
2019-04-07 15:00:00 2.8 8 Sudeste 21 Sudeste -- -- -- 90
2019-04-07 14:00:00 2.7 8 Sudeste 18 Sur -- -- -- 90
2019-04-07 13:00:00 2.1 6 Sudeste 14 Sur -- -- -- 86
2019-04-07 12:00:00 2.3 3 Sur 7 Sur -- -- -- 82
2019-04-07 11:00:00 1.3 3 Sudeste -- -- -- -- -- 86
2019-04-07 10:00:00 0.3 -- -- -- -- -- -- -- 92
2019-04-07 09:00:00 -1.6 -- -- -- -- -- -- -- 98
2019-04-07 08:00:00 -2.2 -- -- -- -- -- -- -- 97
2019-04-07 07:00:00 -2.4 -- -- -- -- -- -- -- 95
2019-04-07 06:00:00 -2.1 -- -- -- -- -- -- -- 96
2019-04-07 05:00:00 -2.1 -- -- -- -- -- -- -- 96
2019-04-07 04:00:00 -1.2 -- -- -- -- -- -- -- 99
2019-04-07 03:00:00 -1.1 -- -- -- -- -- -- -- 99
2019-04-07 02:00:00 -1.1 -- -- -- -- -- -- -- 99
2019-04-07 01:00:00 -1 -- -- -- -- -- -- -- 99
2019-04-07 00:00:00 -0.9 -- -- -- -- -- -- -- 99
2019-04-06 23:00:00 -0.8 -- -- -- -- -- -- -- 98
2019-04-06 22:00:00 -0.8 -- -- -- -- -- -- -- 96
2019-04-06 21:00:00 -0.8 -- -- -- -- -- -- -- 95
2019-04-06 20:00:00 -0.6 -- -- -- -- -- -- -- 97
2019-04-06 19:00:00 -0.4 -- -- -- -- -- -- -- 97
2019-04-06 18:00:00 -0.1 -- -- -- -- -- -- -- 98
2019-04-06 17:00:00 0.7 -- -- -- -- -- -- -- 99
2019-04-06 16:00:00 0.3 -- -- -- -- -- -- -- 98
2019-04-06 15:00:00 0.9 -- -- -- -- -- -- -- 99
2019-04-06 14:00:00 0.2 -- -- -- -- -- -- -- 94
2019-04-06 13:00:00 0.3 -- -- -- -- -- -- -- 94
2019-04-06 12:00:00 0.1 -- -- -- -- -- -- -- 90
2019-04-06 11:00:00 0 -- -- -- -- -- -- -- 90
2019-04-06 10:00:00 -0.4 -- -- -- -- -- -- -- 91
2019-04-06 09:00:00 -0.8 -- -- -- -- -- -- -- 92
2019-04-06 08:00:00 -0.8 -- -- -- -- -- -- -- 91
2019-04-06 07:00:00 -0.8 -- -- -- -- -- -- -- 91
2019-04-06 06:00:00 -0.7 -- -- -- -- -- -- -- 92
2019-04-06 05:00:00 -0.6 -- -- -- -- -- -- -- 91
2019-04-06 04:00:00 -0.2 -- -- -- -- -- -- -- 91
2019-04-06 03:00:00 -0.2 -- -- -- -- -- -- -- 92
2019-04-06 02:00:00 -0.2 -- -- -- -- -- -- -- 93
2019-04-06 01:00:00 -0.1 -- -- -- -- -- -- -- 93
2019-04-06 00:00:00 -0.1 -- -- -- -- -- -- -- 94
2019-04-05 23:00:00 -0.1 -- -- -- -- -- -- -- 97
2019-04-05 22:00:00 0.2 -- -- -- -- -- -- -- 96
2019-04-05 21:00:00 0.9 -- -- -- -- -- -- -- 91
2019-04-05 20:00:00 1.4 -- -- -- -- -- -- -- 90
2019-04-05 19:00:00 2.2 -- -- -- -- -- -- -- 91
2019-04-05 18:00:00 1.8 -- -- -- -- -- -- -- 85
2019-04-05 17:00:00 2.1 -- -- -- -- -- -- -- 82
2019-04-05 16:00:00 2.4 -- -- -- -- -- -- -- 71
2019-04-05 15:00:00 3.5 -- -- -- -- -- -- -- 75
2019-04-05 14:00:00 3.5 -- -- -- -- -- -- -- 81
2019-04-05 13:00:00 2.7 -- -- -- -- -- -- -- 80
2019-04-05 12:00:00 0.4 -- -- -- -- -- -- -- 81
2019-04-05 11:00:00 -0.4 -- -- -- -- -- -- -- 85
2019-04-05 10:00:00 -0.9 -- -- -- -- -- -- -- 90
2019-04-05 09:00:00 -1.6 -- -- -- -- -- -- -- 92
2019-04-05 08:00:00 -1.6 -- -- -- -- -- -- -- 94
2019-04-05 07:00:00 -0.9 -- -- -- -- -- -- -- 95
2019-04-05 06:00:00 -0.7 -- -- -- -- -- -- -- 96
2019-04-05 05:00:00 -0.5 -- -- -- -- -- -- -- 96
2019-04-05 04:00:00 -0.3 -- -- -- -- -- -- -- 96
2019-04-05 03:00:00 -0.1 -- -- -- -- -- -- -- 96
2019-04-05 02:00:00 0 -- -- -- -- -- -- -- 95
2019-04-05 01:00:00 -0.1 -- -- -- -- -- -- -- 96
2019-04-05 00:00:00 0.2 -- -- -- -- -- -- -- 95
2019-04-04 23:00:00 0.1 0 Calma 14 Noroeste -- -- -- 95
2019-04-04 22:00:00 0.2 4 Noroeste 17 Noroeste -- -- -- 93
2019-04-04 21:00:00 0.2 8 Noroeste 20 Noroeste -- -- -- 93
2019-04-04 20:00:00 0.4 4 Noroeste 16 Oeste -- -- -- 93
2019-04-04 19:00:00 0.6 7 Noroeste 18 Oeste -- -- -- 91
2019-04-04 18:00:00 0.7 5 Noroeste 19 Sur -- -- -- 93
2019-04-04 17:00:00 1.3 3 Noroeste 18 Sur -- -- -- 90
2019-04-04 16:00:00 1 4 Noroeste 13 Sudoeste -- -- -- 89
2019-04-04 15:00:00 2 4 Sudoeste 12 Noroeste -- -- -- 83
2019-04-04 14:00:00 1.7 4 Oeste 26 Sur -- -- -- 78
2019-04-04 13:00:00 3.5 4 Sudeste 22 Sur -- -- -- 77
2019-04-04 12:00:00 1.6 3 Noroeste 14 Noroeste -- -- -- 78
2019-04-04 11:00:00 -0.6 2 Noroeste 9 Noroeste -- -- -- 90
2019-04-04 10:00:00 -2 0 Calma 9 Noroeste -- -- -- 97
2019-04-04 09:00:00 -2.5 0 Calma 6 Oeste -- -- -- 98
2019-04-04 08:00:00 -2.6 0 Calma 4 Norte -- -- -- 99
2019-04-04 07:00:00 -2.8 0 Calma 4 Nordeste -- -- -- 99
2019-04-04 06:00:00 -2.8 0 Calma 9 Sudoeste -- -- -- 98
2019-04-04 05:00:00 -2.7 0 Calma 26 Oeste -- -- -- 98
2019-04-04 04:00:00 -2.7 2 Noroeste 14 Oeste -- -- -- 97
2019-04-04 03:00:00 -2.8 4 Noroeste 10 Noroeste -- -- -- 98
2019-04-04 02:00:00 -2.8 3 Oeste 12 Oeste -- -- -- 96
2019-04-04 01:00:00 -2.7 2 Noroeste 8 Oeste -- -- -- 95
2019-04-04 00:00:00 -2.6 6 Oeste 19 Oeste -- -- -- 87
2019-04-03 23:00:00 -2.3 4 Sudoeste 17 Oeste -- -- -- 96
2019-04-03 22:00:00 -2.1 6 Oeste 28 Oeste -- -- -- 92
2019-04-03 21:00:00 -2 0 Calma 10 Noroeste -- -- -- 96
2019-04-03 20:00:00 -1.5 4 Sudoeste 25 Oeste -- -- -- 91
2019-04-03 19:00:00 -0.7 8 Noroeste 24 Oeste -- -- -- 83
2019-04-03 18:00:00 -0.4 4 Noroeste 27 Oeste 0.6 -- -- 89
2019-04-03 17:00:00 0.1 5 Oeste 30 Norte 1 -- -- 89
2019-04-03 16:00:00 0.2 6 Oeste 32 Noroeste 2.2 -- -- 82
2019-04-03 15:00:00 -0.9 6 Oeste 23 Sudoeste 0.4 -- -- 92
2019-04-03 14:00:00 -0.1 8 Noroeste 26 Oeste 1.2 -- -- 88
2019-04-03 13:00:00 -0.1 8 Oeste 26 Noroeste 0.6 -- -- 90
2019-04-03 12:00:00 -0.4 4 Oeste 23 Oeste 0.4 -- -- 91
2019-04-03 11:00:00 -0.6 5 Sudoeste 30 Noroeste 0 -- -- 90
2019-04-03 10:00:00 -1.2 3 Noroeste 30 Oeste 0 -- -- 91
2019-04-03 09:00:00 -1.3 3 Oeste 10 Sudoeste 0 -- -- 98
2019-04-03 08:00:00 -1.2 3 Noroeste 12 Noroeste 0 -- -- 97
2019-04-03 07:00:00 -0.8 5 Oeste 19 Oeste 0 -- -- 93
2019-04-03 06:00:00 -0.6 0 Calma 6 Norte 0 -- -- 98
2019-04-03 05:00:00 -0.3 0 Calma 9 Oeste 0 -- -- 97
2019-04-03 04:00:00 0 3 Oeste 19 Noroeste 0 -- -- 96
2019-04-03 03:00:00 0.3 6 Oeste 17 Oeste 0.2 -- -- 92
2019-04-03 02:00:00 0.9 9 Oeste 21 Oeste 0 -- -- 93
2019-04-03 01:00:00 1.5 10 Noroeste 19 Oeste 0 -- -- 90
2019-04-03 00:00:00 2.5 2 Noroeste 13 Oeste 0 -- -- 90
2019-04-02 23:00:00 2.8 6 Noroeste 10 Noroeste 0 -- -- 92
2019-04-02 22:00:00 3.8 3 Noroeste 14 Oeste 0 -- -- 88
2019-04-02 21:00:00 4.7 4 Noroeste 28 Noroeste 0 -- -- 79
2019-04-02 20:00:00 5.6 8 Noroeste 22 Oeste 0 -- -- 75
2019-04-02 19:00:00 7.2 5 Noroeste 20 Noroeste 0 -- -- 62
2019-04-02 18:00:00 8.3 8 Noroeste 24 Noroeste 0 -- -- 57
2019-04-02 17:00:00 8.6 12 Noroeste 30 Noroeste 0 -- -- 60
2019-04-02 16:00:00 9.1 17 Noroeste 27 Noroeste 0 -- -- 59
2019-04-02 15:00:00 12.2 7 Norte 19 Sur 0 -- -- 44
2019-04-02 14:00:00 11.8 7 Sudeste 23 Sudeste 0 -- -- 42
2019-04-02 13:00:00 8.3 5 Oeste 16 Sur 0 -- -- 70
2019-04-02 12:00:00 4.8 4 Sudeste 13 Sur 0 -- -- 84
2019-04-02 11:00:00 2.9 4 Noroeste 10 Noroeste 0 -- -- 90
2019-04-02 10:00:00 5 3 Noroeste 8 Oeste 0 -- -- 72
2019-04-02 09:00:00 0.8 2 Noroeste 6 Noroeste 0 -- -- 86
2019-04-02 08:00:00 -0.5 3 Noroeste 6 Noroeste 0 -- -- 87
2019-04-02 07:00:00 -0.5 3 Noroeste 5 Noroeste 0 -- -- 85
2019-04-02 06:00:00 0.1 3 Noroeste 5 Noroeste 0 -- -- 81
2019-04-02 05:00:00 2 0 Calma 20 Este 0 -- -- 70
2019-04-02 04:00:00 5.5 14 Este 19 Este 0 -- -- 60
2019-04-02 03:00:00 4.9 9 Nordeste 16 Este 0 -- -- 67
2019-04-02 02:00:00 1.8 0 Calma 5 Noroeste 0 -- -- 79
2019-04-02 01:00:00 1.9 2 Oeste 6 Noroeste 0 -- -- 79
2019-04-02 00:00:00 2.1 2 Noroeste 4 Noroeste 0 -- -- 84
2019-04-01 23:00:00 3.3 0 Calma 3 Noroeste 0 -- -- 77
2019-04-01 22:00:00 6.6 2 Este 22 Noroeste 0 -- -- 67
2019-04-01 21:00:00 7.9 14 Norte 23 Norte 0 -- -- 65
2019-04-01 20:00:00 9.4 8 Nordeste 24 Noroeste 0 -- -- 57
2019-04-01 19:00:00 10.8 8 Oeste 27 Noroeste 0 -- -- 50
2019-04-01 18:00:00 11.8 12 Noroeste 29 Oeste 0 -- -- 45
2019-04-01 17:00:00 12.3 14 Oeste 27 Noroeste 0 -- -- 41
2019-04-01 16:00:00 12.4 8 Noroeste 24 Oeste 0 -- -- 38
2019-04-01 15:00:00 12.1 9 Noroeste 24 Noroeste 0 -- -- 37
2019-04-01 14:00:00 11.5 11 Noroeste 26 Noroeste 0 -- -- 38
2019-04-01 13:00:00 12.1 9 Oeste 22 Sur 0 -- -- 40
2019-04-01 12:00:00 11.1 9 Sur 18 Sur 0 -- -- 52
2019-04-01 11:00:00 9.3 6 Sur 15 Sudeste 0 -- -- 60
2019-04-01 10:00:00 7.4 7 Sur 13 Sudeste 0 -- -- 66
2019-04-01 09:00:00 2.8 0 Calma 8 Noroeste 0 -- -- 85
2019-04-01 08:00:00 1.9 4 Oeste 17 Este 0 -- -- 84
2019-04-01 07:00:00 3.5 5 Nordeste 14 Nordeste 0 -- -- 76
2019-04-01 06:00:00 2.9 3 Noroeste 14 Este 0 -- -- 79
2019-04-01 05:00:00 5.8 10 Nordeste 23 Este 0 -- -- 68
2019-04-01 04:00:00 6.9 13 Nordeste 20 Este 0 -- -- 64
2019-04-01 03:00:00 7.5 10 Nordeste 17 Nordeste 0 -- -- 62
2019-04-01 02:00:00 7.4 11 Este 18 Nordeste 0 -- -- 62
2019-04-01 01:00:00 7.6 5 Sudeste 18 Este 0 -- -- 61
2019-04-01 00:00:00 8 12 Este 19 Este 0 -- -- 61
2019-03-31 23:00:00 7.9 13 Este 18 Este 0 -- -- 60
2019-03-31 22:00:00 7.7 12 Nordeste 20 Este 0 -- -- 61
2019-03-31 21:00:00 8.2 8 Nordeste 23 Este 0 -- -- 60
2019-03-31 20:00:00 8.9 10 Este 18 Este 0 -- -- 59
2019-03-31 19:00:00 8.8 10 Norte 23 Norte 1.2 -- -- 71
2019-03-31 18:00:00 11.7 10 Noroeste 20 Noroeste 0 -- -- 46
2019-03-31 17:00:00 12.6 6 Sur 15 Oeste 0 -- -- 41
2019-03-31 16:00:00 12.3 3 Este 15 Sudeste 0 -- -- 42
2019-03-31 15:00:00 12.6 9 Sudeste 24 Sudeste 0 -- -- 32
2019-03-31 14:00:00 11.7 9 Este 22 Este 0 -- -- 36
2019-03-31 13:00:00 11.3 10 Este 23 Este 0 -- -- 40
2019-03-31 12:00:00 11 13 Este 23 Este 0 -- -- 44
2019-03-31 11:00:00 9.9 12 Este 20 Este 0 -- -- 46
2019-03-31 10:00:00 8.5 10 Nordeste 19 Nordeste 0 -- -- 52
2019-03-31 09:00:00 6.8 12 Nordeste 24 Nordeste 0 -- -- 55
2019-03-31 08:00:00 6.3 13 Nordeste 21 Nordeste 0 -- -- 57
2019-03-31 07:00:00 6.4 12 Nordeste 24 Nordeste 0 -- -- 60
2019-03-31 06:00:00 6.7 12 Nordeste 21 Este 0 -- -- 61
2019-03-31 05:00:00 7.1 12 Nordeste 22 Nordeste 0 -- -- 61
2019-03-31 03:00:00 7.3 15 Nordeste 22 Este 0 -- -- 65
2019-03-31 01:00:00 7.7 17 Este 22 Este 0 -- -- 62
2019-03-31 00:00:00 7.6 12 Nordeste 23 Este 0 -- -- 63
2019-03-30 23:00:00 6.9 15 Este 28 Este 0 -- -- 68
2019-03-30 22:00:00 6.8 20 Nordeste 31 Este 0 -- -- 72
2019-03-30 21:00:00 7.1 15 Nordeste 23 Este 0 -- -- 71
2019-03-30 20:00:00 8 13 Este 21 Este 0 -- -- 64
2019-03-30 19:00:00 9.3 4 Este 17 Este 0 -- -- 58
2019-03-30 18:00:00 9.8 12 Este 20 Este 0 -- -- 54
2019-03-30 17:00:00 9.5 3 Este 13 Sudoeste 0 -- -- 63
2019-03-30 16:00:00 10.9 4 Nordeste 12 Noroeste 0 -- -- 54
2019-03-30 15:00:00 10.1 8 Noroeste 27 Noroeste 0 -- -- 54
2019-03-30 14:00:00 9.8 10 Noroeste 19 Oeste 0 -- -- 52
2019-03-30 13:00:00 9.7 12 Este 20 Este 0 -- -- 56
2019-03-30 12:00:00 9.4 12 Este 24 Este 0 -- -- 58
2019-03-30 11:00:00 7.9 14 Este 24 Este 0 -- -- 68
2019-03-30 10:00:00 7.6 17 Nordeste 27 Este 0 -- -- 66
2019-03-30 09:00:00 7.1 15 Nordeste 26 Este 0 -- -- 63
2019-03-30 08:00:00 5.4 9 Nordeste 16 Nordeste 0 -- -- 71
2019-03-30 07:00:00 3.3 2 Oeste 6 Noroeste 0 -- -- 83
2019-03-30 06:00:00 3.6 4 Noroeste 5 Noroeste 0 -- -- 84
2019-03-30 05:00:00 3.5 2 Noroeste 6 Noroeste 0 -- -- 84
2019-03-30 04:00:00 3.2 3 Noroeste 6 Noroeste 0 -- -- 83
2019-03-30 03:00:00 3.1 4 Noroeste 6 Noroeste 0 -- -- 83
2019-03-30 02:00:00 3.5 4 Noroeste 6 Noroeste 0 -- -- 81
2019-03-30 01:00:00 3.9 3 Noroeste 5 Norte 0 -- -- 77
2019-03-30 00:00:00 4.5 4 Noroeste 6 Noroeste 0 -- -- 78
2019-03-29 23:00:00 5.3 0 Calma 5 Noroeste 0 -- -- 76
2019-03-29 22:00:00 6.1 0 Calma 5 Noroeste 0 -- -- 74
2019-03-29 21:00:00 7.8 0 Calma 9 Noroeste 0 -- -- 70
2019-03-29 20:00:00 10 7 Noroeste 17 Noroeste 0 -- -- 64
2019-03-29 19:00:00 11.5 13 Noroeste 21 Noroeste 0 -- -- 57
2019-03-29 18:00:00 13.2 8 Noroeste 24 Noroeste 0 -- -- 48
2019-03-29 17:00:00 15.9 5 Norte 18 Sudeste 0 -- -- 27
2019-03-29 16:00:00 15.9 6 Este 18 Sudeste 0 -- -- 22
2019-03-29 15:00:00 16.1 6 Sudeste 19 Sur 0 -- -- 25
2019-03-29 14:00:00 15.7 8 Sur 21 Sur 0 -- -- 29
2019-03-29 13:00:00 14.4 5 Noroeste 17 Sudeste 0 -- -- 30
2019-03-29 12:00:00 13.9 4 Sur 17 Sudeste 0 -- -- 31
2019-03-29 11:00:00 12.5 9 Sudeste 22 Este 0 -- -- 35
2019-03-29 10:00:00 9.7 12 Este 22 Este 0 -- -- 40
2019-03-29 09:00:00 8.7 12 Este 22 Este 0 -- -- 41
2019-03-29 08:00:00 7 13 Nordeste 21 Nordeste 0 -- -- 45
2019-03-29 07:00:00 6 11 Este 18 Nordeste 0 -- -- 47
2019-03-29 06:00:00 6.5 12 Nordeste 18 Nordeste 0 -- -- 47
2019-03-29 05:00:00 3.7 2 Noroeste 14 Nordeste 0 -- -- 59
2019-03-29 04:00:00 3.7 3 Norte 9 Norte 0 -- -- 63
2019-03-29 03:00:00 4.2 2 Oeste 16 Nordeste 0 -- -- 64
2019-03-29 02:00:00 7.2 10 Nordeste 16 Nordeste 0 -- -- 55
2019-03-29 01:00:00 7.4 9 Nordeste 14 Nordeste 0 -- -- 53
2019-03-29 00:00:00 7.2 3 Norte 19 Nordeste 0 -- -- 53
2019-03-28 23:00:00 9 11 Nordeste 15 Este 0 -- -- 48
2019-03-28 22:00:00 6.9 9 Este 15 Este 0 -- -- 65
2019-03-28 21:00:00 5.3 0 Calma 3 Noroeste 0 -- -- 77
2019-03-28 20:00:00 7.4 2 Oeste 5 Sudoeste 0 -- -- 69
2019-03-28 19:00:00 11 2 Oeste 14 Sur 0 -- -- 60
2019-03-28 18:00:00 13.3 6 Sur 19 Sur 0 -- -- 50
2019-03-28 17:00:00 15 5 Sudoeste 18 Noroeste 0 -- -- 45
2019-03-28 16:00:00 15.2 6 Norte 24 Sur 0 -- -- 44
2019-03-28 15:00:00 16.3 10 Sur 27 Sur 0 -- -- 37
2019-03-28 14:00:00 14.4 5 Noroeste 19 Sur 0 -- -- 38
2019-03-28 13:00:00 15.2 7 Sur 20 Sur 0 -- -- 33
2019-03-28 12:00:00 14.8 8 Sur 20 Sur 0 -- -- 29
2019-03-28 11:00:00 13 5 Sudoeste 12 Sudoeste 0 -- -- 35
2019-03-28 10:00:00 13 4 Sudeste 12 Sudeste 0 -- -- 32
2019-03-28 09:00:00 10.7 8 Nordeste 16 Nordeste 0 -- -- 32
2019-03-28 08:00:00 8.3 9 Nordeste 15 Nordeste 0 -- -- 35
2019-03-28 07:00:00 7.3 10 Nordeste 15 Nordeste 0 -- -- 38
2019-03-28 06:00:00 6.2 9 Norte 13 Nordeste 0 -- -- 40
2019-03-28 05:00:00 6.2 9 Norte 16 Norte 0 -- -- 42
2019-03-28 04:00:00 8.3 12 Nordeste 18 Nordeste 0 -- -- 34
2019-03-28 03:00:00 8.2 11 Nordeste 18 Nordeste 0 -- -- 33
2019-03-28 02:00:00 8.1 12 Nordeste 19 Nordeste 0 -- -- 32
2019-03-28 01:00:00 8.6 14 Nordeste 19 Nordeste 0 -- -- 30
2019-03-28 00:00:00 8.4 13 Nordeste 21 Nordeste 0 -- -- 31
2019-03-27 23:00:00 8.6 12 Nordeste 19 Nordeste 0 -- -- 31
2019-03-27 22:00:00 9.2 12 Nordeste 19 Nordeste 0 -- -- 37
2019-03-27 21:00:00 9 12 Este 18 Este 0 -- -- 43
2019-03-27 20:00:00 6.5 0 Calma 5 Oeste 0 -- -- 68
2019-03-27 19:00:00 9.8 2 Noroeste 9 Sudoeste 0 -- -- 60
2019-03-27 18:00:00 12.4 4 Sur 19 Sur 0 -- -- 51
2019-03-27 17:00:00 13.8 10 Este 24 Nordeste 0 -- -- 45
2019-03-27 16:00:00 14.2 11 Noroeste 26 Sudeste 0 -- -- 43
2019-03-27 15:00:00 15.8 10 Sudeste 22 Sur 0 -- -- 37
2019-03-27 14:00:00 15.8 8 Sudeste 21 Sudoeste 0 -- -- 33
2019-03-27 13:00:00 17.2 11 Sudeste 26 Nordeste 0 -- -- 25
2019-03-27 12:00:00 15.2 14 Este 28 Este 0 -- -- 18
2019-03-27 11:00:00 13.7 15 Este 29 Este 0 -- -- 20
2019-03-27 10:00:00 12.1 13 Este 23 Este 0 -- -- 17
2019-03-27 09:00:00 10.3 12 Nordeste 19 Nordeste 0 -- -- 18
2019-03-27 08:00:00 9.1 14 Nordeste 21 Nordeste 0 -- -- 18
2019-03-27 07:00:00 8.6 14 Nordeste 25 Nordeste 0 -- -- 18
2019-03-27 06:00:00 8.3 15 Nordeste 24 Nordeste 0 -- -- 16
2019-03-27 05:00:00 8.3 12 Nordeste 26 Este 0 -- -- 14
2019-03-27 04:00:00 8.8 14 Nordeste 27 Este 0 -- -- 13
2019-03-27 03:00:00 8.6 16 Nordeste 27 Nordeste 0 -- -- 13
2019-03-27 02:00:00 8.7 17 Nordeste 27 Este 0 -- -- 15
2019-03-27 01:00:00 7.8 13 Este 27 Nordeste 0 -- -- 22
2019-03-27 00:00:00 7.9 16 Nordeste 26 Este 0 -- -- 29